Year,Month,Day,Hour,Minute,Value (Times are PST for temperature in C)
2012,07,12,00,00,15.30
2012,07,12,00,01,15.30
2012,07,12,00,02,15.30
2012,07,12,00,03,15.30
2012,07,12,00,04,15.40
2012,07,12,00,05,15.40
2012,07,12,00,06,15.40
2012,07,12,00,07,15.50
2012,07,12,00,08,15.50
2012,07,12,00,09,15.50
2012,07,12,00,10,15.60
2012,07,12,00,11,15.60
2012,07,12,00,12,15.60
2012,07,12,00,13,15.60
2012,07,12,00,14,15.60
2012,07,12,00,15,15.60
2012,07,12,00,16,15.60
2012,07,12,00,17,15.60
2012,07,12,00,18,15.70
2012,07,12,00,19,15.70
2012,07,12,00,20,15.70
2012,07,12,00,21,15.70
2012,07,12,00,22,15.60
2012,07,12,00,23,15.60
2012,07,12,00,24,15.60
2012,07,12,00,25,15.60
2012,07,12,00,26,15.60
2012,07,12,00,27,15.60
2012,07,12,00,28,15.50
2012,07,12,00,29,15.50
2012,07,12,00,30,15.50
2012,07,12,00,31,15.40
2012,07,12,00,32,15.40
2012,07,12,00,33,15.40
2012,07,12,00,34,15.30
2012,07,12,00,35,15.30
2012,07,12,00,36,15.30
2012,07,12,00,37,15.30
2012,07,12,00,38,15.20
2012,07,12,00,39,15.20
2012,07,12,00,40,15.20
2012,07,12,00,41,15.20
2012,07,12,00,42,15.20
2012,07,12,00,43,15.20
2012,07,12,00,44,15.10
2012,07,12,00,45,15.10
2012,07,12,00,46,15.10
2012,07,12,00,47,15.10
2012,07,12,00,48,15.10
2012,07,12,00,49,15.10
2012,07,12,00,50,15.10
2012,07,12,00,51,15.10
2012,07,12,00,52,15.00
2012,07,12,00,53,15.00
2012,07,12,00,54,15.00
2012,07,12,00,55,15.00
2012,07,12,00,56,15.00
2012,07,12,00,57,15.00
2012,07,12,00,58,15.00
2012,07,12,00,59,14.90
2012,07,12,01,00,14.90
2012,07,12,01,01,14.90
2012,07,12,01,02,14.90
2012,07,12,01,03,14.90
2012,07,12,01,04,14.90
2012,07,12,01,05,14.90
2012,07,12,01,06,14.80
2012,07,12,01,07,14.80
2012,07,12,01,08,14.80
2012,07,12,01,09,14.80
2012,07,12,01,10,14.80
2012,07,12,01,11,14.80
2012,07,12,01,12,14.80
2012,07,12,01,13,14.70
2012,07,12,01,14,14.70
2012,07,12,01,15,14.70
2012,07,12,01,16,14.70
2012,07,12,01,17,14.60
2012,07,12,01,18,14.60
2012,07,12,01,19,14.60
2012,07,12,01,20,14.60
2012,07,12,01,21,14.60
2012,07,12,01,22,14.50
2012,07,12,01,23,14.50
2012,07,12,01,24,14.50
2012,07,12,01,25,14.50
2012,07,12,01,26,14.50
2012,07,12,01,27,14.40
2012,07,12,01,28,14.40
2012,07,12,01,29,14.40
2012,07,12,01,30,14.40
2012,07,12,01,31,14.40
2012,07,12,01,32,14.40
2012,07,12,01,33,14.40
2012,07,12,01,34,14.40
2012,07,12,01,35,14.40
2012,07,12,01,36,14.40
2012,07,12,01,37,14.40
2012,07,12,01,38,14.40
2012,07,12,01,39,14.30
2012,07,12,01,40,14.30
2012,07,12,01,41,14.30
2012,07,12,01,42,14.30
2012,07,12,01,43,14.30
2012,07,12,01,44,14.30
2012,07,12,01,45,14.30
2012,07,12,01,46,14.30
2012,07,12,01,47,14.30
2012,07,12,01,48,14.30
2012,07,12,01,49,14.30
2012,07,12,01,50,14.30
2012,07,12,01,51,14.30
2012,07,12,01,52,14.30
2012,07,12,01,53,14.30
2012,07,12,01,54,14.30
2012,07,12,01,55,14.30
2012,07,12,01,56,14.30
2012,07,12,01,57,14.30
2012,07,12,01,58,14.30
2012,07,12,01,59,14.30
2012,07,12,02,00,14.20
2012,07,12,02,01,14.20
2012,07,12,02,02,14.20
2012,07,12,02,03,14.20
2012,07,12,02,04,14.20
2012,07,12,02,05,14.20
2012,07,12,02,06,14.20
2012,07,12,02,07,14.10
2012,07,12,02,08,14.10
2012,07,12,02,09,14.10
2012,07,12,02,10,14.10
2012,07,12,02,11,14.10
2012,07,12,02,12,14.10
2012,07,12,02,13,14.00
2012,07,12,02,14,14.00
2012,07,12,02,15,14.00
2012,07,12,02,16,14.00
2012,07,12,02,17,13.90
2012,07,12,02,18,13.90
2012,07,12,02,19,13.90
2012,07,12,02,20,13.90
2012,07,12,02,21,13.90
2012,07,12,02,22,13.90
2012,07,12,02,23,13.90
2012,07,12,02,24,13.80
2012,07,12,02,25,13.80
2012,07,12,02,26,13.80
2012,07,12,02,27,13.80
2012,07,12,02,28,13.70
2012,07,12,02,29,13.70
2012,07,12,02,30,13.70
2012,07,12,02,31,13.60
2012,07,12,02,32,13.60
2012,07,12,02,33,13.60
2012,07,12,02,34,13.60
2012,07,12,02,35,13.50
2012,07,12,02,36,13.50
2012,07,12,02,37,13.50
2012,07,12,02,38,13.40
2012,07,12,02,39,13.40
2012,07,12,02,40,13.40
2012,07,12,02,41,13.40
2012,07,12,02,42,13.40
2012,07,12,02,43,13.40
2012,07,12,02,44,13.40
2012,07,12,02,45,13.40
2012,07,12,02,46,13.40
2012,07,12,02,47,13.40
2012,07,12,02,48,13.40
2012,07,12,02,49,13.40
2012,07,12,02,50,13.40
2012,07,12,02,51,13.40
2012,07,12,02,52,13.40
2012,07,12,02,53,13.40
2012,07,12,02,54,13.40
2012,07,12,02,55,13.40
2012,07,12,02,56,13.40
2012,07,12,02,57,13.40
2012,07,12,02,58,13.40
2012,07,12,02,59,13.40
2012,07,12,03,00,13.40
2012,07,12,03,01,13.40
2012,07,12,03,02,13.40
2012,07,12,03,03,13.40
2012,07,12,03,04,13.50
2012,07,12,03,05,13.50
2012,07,12,03,06,13.50
2012,07,12,03,07,13.40
2012,07,12,03,08,13.40
2012,07,12,03,09,13.40
2012,07,12,03,10,13.30
2012,07,12,03,11,13.30
2012,07,12,03,12,13.20
2012,07,12,03,13,13.20
2012,07,12,03,14,13.20
2012,07,12,03,15,13.10
2012,07,12,03,16,13.10
2012,07,12,03,17,13.10
2012,07,12,03,18,13.00
2012,07,12,03,19,13.00
2012,07,12,03,20,13.00
2012,07,12,03,21,12.90
2012,07,12,03,22,12.90
2012,07,12,03,23,12.90
2012,07,12,03,24,12.90
2012,07,12,03,25,12.80
2012,07,12,03,26,12.80
2012,07,12,03,27,12.80
2012,07,12,03,28,12.80
2012,07,12,03,29,12.80
2012,07,12,03,30,12.80
2012,07,12,03,31,12.80
2012,07,12,03,32,12.80
2012,07,12,03,33,12.70
2012,07,12,03,34,12.80
2012,07,12,03,35,12.80
2012,07,12,03,36,12.80
2012,07,12,03,37,12.80
2012,07,12,03,38,12.80
2012,07,12,03,39,12.80
2012,07,12,03,40,12.80
2012,07,12,03,41,12.80
2012,07,12,03,42,12.80
2012,07,12,03,43,12.80
2012,07,12,03,44,12.80
2012,07,12,03,45,12.80
2012,07,12,03,46,12.80
2012,07,12,03,47,12.80
2012,07,12,03,48,12.80
2012,07,12,03,49,12.80
2012,07,12,03,50,12.80
2012,07,12,03,51,12.80
2012,07,12,03,52,12.80
2012,07,12,03,53,12.80
2012,07,12,03,54,12.80
2012,07,12,03,55,12.80
2012,07,12,03,56,12.80
2012,07,12,03,57,12.80
2012,07,12,03,58,12.80
2012,07,12,03,59,12.80
2012,07,12,04,00,12.80
2012,07,12,04,01,12.80
2012,07,12,04,02,12.90
2012,07,12,04,03,12.90
2012,07,12,04,04,12.90
2012,07,12,04,05,12.90
2012,07,12,04,06,12.90
2012,07,12,04,07,12.90
2012,07,12,04,08,12.90
2012,07,12,04,09,12.90
2012,07,12,04,10,12.90
2012,07,12,04,11,12.90
2012,07,12,04,12,12.90
2012,07,12,04,13,12.90
2012,07,12,04,14,12.90
2012,07,12,04,15,12.90
2012,07,12,04,16,12.90
2012,07,12,04,17,12.90
2012,07,12,04,18,12.90
2012,07,12,04,19,12.90
2012,07,12,04,20,12.90
2012,07,12,04,21,12.90
2012,07,12,04,22,12.90
2012,07,12,04,23,12.90
2012,07,12,04,24,12.90
2012,07,12,04,25,12.90
2012,07,12,04,26,13.00
2012,07,12,04,27,13.00
2012,07,12,04,28,13.10
2012,07,12,04,29,13.10
2012,07,12,04,30,13.10
2012,07,12,04,31,13.10
2012,07,12,04,32,13.10
2012,07,12,04,33,13.10
2012,07,12,04,34,13.10
2012,07,12,04,35,13.20
2012,07,12,04,36,13.20
2012,07,12,04,37,13.30
2012,07,12,04,38,13.30
2012,07,12,04,39,13.40
2012,07,12,04,40,13.40
2012,07,12,04,41,13.40
2012,07,12,04,42,13.40
2012,07,12,04,43,13.40
2012,07,12,04,44,13.40
2012,07,12,04,45,13.30
2012,07,12,04,46,13.30
2012,07,12,04,47,13.30
2012,07,12,04,48,13.30
2012,07,12,04,49,13.30
2012,07,12,04,50,13.30
2012,07,12,04,51,13.30
2012,07,12,04,52,13.30
2012,07,12,04,53,13.30
2012,07,12,04,54,13.30
2012,07,12,04,55,13.40
2012,07,12,04,56,13.40
2012,07,12,04,57,13.40
2012,07,12,04,58,13.40
2012,07,12,04,59,13.30
2012,07,12,05,00,13.30
2012,07,12,05,01,13.30
2012,07,12,05,02,13.30
2012,07,12,05,03,13.30
2012,07,12,05,04,13.20
2012,07,12,05,05,13.20
2012,07,12,05,06,13.20
2012,07,12,05,07,13.20
2012,07,12,05,08,13.20
2012,07,12,05,09,13.20
2012,07,12,05,10,13.20
2012,07,12,05,11,13.20
2012,07,12,05,12,13.20
2012,07,12,05,13,13.20
2012,07,12,05,14,13.10
2012,07,12,05,15,13.00
2012,07,12,05,16,13.00
2012,07,12,05,17,12.90
2012,07,12,05,18,12.90
2012,07,12,05,19,12.90
2012,07,12,05,20,12.90
2012,07,12,05,21,12.90
2012,07,12,05,22,12.90
2012,07,12,05,23,12.90
2012,07,12,05,24,12.90
2012,07,12,05,25,12.80
2012,07,12,05,26,12.80
2012,07,12,05,27,12.80
2012,07,12,05,28,12.80
2012,07,12,05,29,12.80
2012,07,12,05,30,12.80
2012,07,12,05,31,12.80
2012,07,12,05,32,12.80
2012,07,12,05,33,12.80
2012,07,12,05,34,12.80
2012,07,12,05,35,12.80
2012,07,12,05,36,12.80
2012,07,12,05,37,12.80
2012,07,12,05,38,12.80
2012,07,12,05,39,12.80
2012,07,12,05,40,12.80
2012,07,12,05,41,12.80
2012,07,12,05,42,12.80
2012,07,12,05,43,12.80
2012,07,12,05,44,12.80
2012,07,12,05,45,12.80
2012,07,12,05,46,12.80
2012,07,12,05,47,12.80
2012,07,12,05,48,12.80
2012,07,12,05,49,12.90
2012,07,12,05,50,12.90
2012,07,12,05,51,12.90
2012,07,12,05,52,12.90
2012,07,12,05,53,12.90
2012,07,12,05,54,12.90
2012,07,12,05,55,12.90
2012,07,12,05,56,12.90
2012,07,12,05,57,12.90
2012,07,12,05,58,12.90
2012,07,12,05,59,12.90
2012,07,12,06,00,12.90
2012,07,12,06,01,12.90
2012,07,12,06,02,12.90
2012,07,12,06,03,12.90
2012,07,12,06,04,12.90
2012,07,12,06,05,12.90
2012,07,12,06,06,12.90
2012,07,12,06,07,13.00
2012,07,12,06,08,13.00
2012,07,12,06,09,13.00
2012,07,12,06,10,13.00
2012,07,12,06,11,13.10
2012,07,12,06,12,13.10
2012,07,12,06,13,13.10
2012,07,12,06,14,13.10
2012,07,12,06,15,13.10
2012,07,12,06,16,13.20
2012,07,12,06,17,13.20
2012,07,12,06,18,13.20
2012,07,12,06,19,13.20
2012,07,12,06,20,13.30
2012,07,12,06,21,13.30
2012,07,12,06,22,13.30
2012,07,12,06,23,13.40
2012,07,12,06,24,13.40
2012,07,12,06,25,13.40
2012,07,12,06,26,13.40
2012,07,12,06,27,13.50
2012,07,12,06,28,13.50
2012,07,12,06,29,13.60
2012,07,12,06,30,13.60
2012,07,12,06,31,13.70
2012,07,12,06,32,13.70
2012,07,12,06,33,13.80
2012,07,12,06,34,13.80
2012,07,12,06,35,13.90
2012,07,12,06,36,14.00
2012,07,12,06,37,14.10
2012,07,12,06,38,14.20
2012,07,12,06,39,14.20
2012,07,12,06,40,14.30
2012,07,12,06,41,14.40
2012,07,12,06,42,14.50
2012,07,12,06,43,14.60
2012,07,12,06,44,14.70
2012,07,12,06,45,14.70
2012,07,12,06,46,14.80
2012,07,12,06,47,14.90
2012,07,12,06,48,14.90
2012,07,12,06,49,15.00
2012,07,12,06,50,15.10
2012,07,12,06,51,15.10
2012,07,12,06,52,15.10
2012,07,12,06,53,15.10
2012,07,12,06,54,15.10
2012,07,12,06,55,15.10
2012,07,12,06,56,15.00
2012,07,12,06,57,15.00
2012,07,12,06,58,14.90
2012,07,12,06,59,14.90
2012,07,12,07,00,14.90
2012,07,12,07,01,14.90
2012,07,12,07,02,14.90
2012,07,12,07,03,14.90
2012,07,12,07,04,14.90
2012,07,12,07,05,14.90
2012,07,12,07,06,14.90
2012,07,12,07,07,14.90
2012,07,12,07,08,14.90
2012,07,12,07,09,14.90
2012,07,12,07,10,14.90
2012,07,12,07,11,15.00
2012,07,12,07,12,15.00
2012,07,12,07,13,15.00
2012,07,12,07,14,15.10
2012,07,12,07,15,15.10
2012,07,12,07,16,15.10
2012,07,12,07,17,15.10
2012,07,12,07,18,15.20
2012,07,12,07,19,15.20
2012,07,12,07,20,15.20
2012,07,12,07,21,15.20
2012,07,12,07,22,15.30
2012,07,12,07,23,15.30
2012,07,12,07,24,15.30
2012,07,12,07,25,15.30
2012,07,12,07,26,15.30
2012,07,12,07,27,15.30
2012,07,12,07,28,15.30
2012,07,12,07,29,15.30
2012,07,12,07,30,15.30
2012,07,12,07,31,15.40
2012,07,12,07,32,15.40
2012,07,12,07,33,15.40
2012,07,12,07,34,15.40
2012,07,12,07,35,15.40
2012,07,12,07,36,15.40
2012,07,12,07,37,15.40
2012,07,12,07,38,15.40
2012,07,12,07,39,15.40
2012,07,12,07,40,15.30
2012,07,12,07,41,15.30
2012,07,12,07,42,15.30
2012,07,12,07,43,15.30
2012,07,12,07,44,15.30
2012,07,12,07,45,15.30
2012,07,12,07,46,15.30
2012,07,12,07,47,15.30
2012,07,12,07,48,15.30
2012,07,12,07,49,15.40
2012,07,12,07,50,15.40
2012,07,12,07,51,15.40
2012,07,12,07,52,15.40
2012,07,12,07,53,15.40
2012,07,12,07,54,15.50
2012,07,12,07,55,15.50
2012,07,12,07,56,15.60
2012,07,12,07,57,15.60
2012,07,12,07,58,15.60
2012,07,12,07,59,15.60
2012,07,12,08,00,15.60
2012,07,12,08,01,15.60
2012,07,12,08,02,15.60
2012,07,12,08,03,15.60
2012,07,12,08,04,15.70
2012,07,12,08,05,15.70
2012,07,12,08,06,15.70
2012,07,12,08,07,15.70
2012,07,12,08,08,15.70
2012,07,12,08,09,15.80
2012,07,12,08,10,15.80
2012,07,12,08,11,15.80
2012,07,12,08,12,15.90
2012,07,12,08,13,15.90
2012,07,12,08,14,16.00
2012,07,12,08,15,16.00
2012,07,12,08,16,16.00
2012,07,12,08,17,16.00
2012,07,12,08,18,16.00
2012,07,12,08,19,16.00
2012,07,12,08,20,16.00
2012,07,12,08,21,16.00
2012,07,12,08,22,15.90
2012,07,12,08,23,15.90
2012,07,12,08,24,15.90
2012,07,12,08,25,15.90
2012,07,12,08,26,15.80
2012,07,12,08,27,15.80
2012,07,12,08,28,15.80
2012,07,12,08,29,15.80
2012,07,12,08,30,15.80
2012,07,12,08,31,15.70
2012,07,12,08,32,15.70
2012,07,12,08,33,15.60
2012,07,12,08,34,15.60
2012,07,12,08,35,15.70
2012,07,12,08,36,15.70
2012,07,12,08,37,15.80
2012,07,12,08,38,15.90
2012,07,12,08,39,16.00
2012,07,12,08,40,16.00
2012,07,12,08,41,16.10
2012,07,12,08,42,16.20
2012,07,12,08,43,16.20
2012,07,12,08,44,16.30
2012,07,12,08,45,16.30
2012,07,12,08,46,16.30
2012,07,12,08,47,16.30
2012,07,12,08,48,16.30
2012,07,12,08,49,16.30
2012,07,12,08,50,16.30
2012,07,12,08,51,16.30
2012,07,12,08,52,16.40
2012,07,12,08,53,16.40
2012,07,12,08,54,16.40
2012,07,12,08,55,16.40
2012,07,12,08,56,16.50
2012,07,12,08,57,16.50
2012,07,12,08,58,16.50
2012,07,12,08,59,16.60
2012,07,12,09,00,16.70
2012,07,12,09,01,16.70
2012,07,12,09,02,16.80
2012,07,12,09,03,16.70
2012,07,12,09,04,16.70
2012,07,12,09,05,16.60
2012,07,12,09,06,16.60
2012,07,12,09,07,16.50
2012,07,12,09,08,16.50
2012,07,12,09,09,16.60
2012,07,12,09,10,16.60
2012,07,12,09,11,16.70
2012,07,12,09,12,16.80
2012,07,12,09,13,16.80
2012,07,12,09,14,16.80
2012,07,12,09,15,16.90
2012,07,12,09,16,16.90
2012,07,12,09,17,17.00
2012,07,12,09,18,17.00
2012,07,12,09,19,17.10
2012,07,12,09,20,17.10
2012,07,12,09,21,17.00
2012,07,12,09,22,17.00
2012,07,12,09,23,17.00
2012,07,12,09,24,17.10
2012,07,12,09,25,17.10
2012,07,12,09,26,17.20
2012,07,12,09,27,17.30
2012,07,12,09,28,17.40
2012,07,12,09,29,17.50
2012,07,12,09,30,17.60
2012,07,12,09,31,17.70
2012,07,12,09,32,17.70
2012,07,12,09,33,17.80
2012,07,12,09,34,17.80
2012,07,12,09,35,17.90
2012,07,12,09,36,17.90
2012,07,12,09,37,18.00
2012,07,12,09,38,18.10
2012,07,12,09,39,18.10
2012,07,12,09,40,18.10
2012,07,12,09,41,18.20
2012,07,12,09,42,18.20
2012,07,12,09,43,18.20
2012,07,12,09,44,18.20
2012,07,12,09,45,18.20
2012,07,12,09,46,18.20
2012,07,12,09,47,18.20
2012,07,12,09,48,18.20
2012,07,12,09,49,18.20
2012,07,12,09,50,18.20
2012,07,12,09,51,18.30
2012,07,12,09,52,18.40
2012,07,12,09,53,18.40
2012,07,12,09,54,18.50
2012,07,12,09,55,18.50
2012,07,12,09,56,18.50
2012,07,12,09,57,18.50
2012,07,12,09,58,18.40
2012,07,12,09,59,18.40
2012,07,12,10,00,18.40
2012,07,12,10,01,18.30
2012,07,12,10,02,18.30
2012,07,12,10,03,18.30
2012,07,12,10,04,18.30
2012,07,12,10,05,18.30
2012,07,12,10,06,18.30
2012,07,12,10,07,18.40
2012,07,12,10,08,18.50
2012,07,12,10,09,18.60
2012,07,12,10,10,18.70
2012,07,12,10,11,18.70
2012,07,12,10,12,18.70
2012,07,12,10,13,18.70
2012,07,12,10,14,18.70
2012,07,12,10,15,18.70
2012,07,12,10,16,18.70
2012,07,12,10,17,18.70
2012,07,12,10,18,18.70
2012,07,12,10,19,18.80
2012,07,12,10,20,18.80
2012,07,12,10,21,18.90
2012,07,12,10,22,18.90
2012,07,12,10,23,19.00
2012,07,12,10,24,19.00
2012,07,12,10,25,19.10
2012,07,12,10,26,19.10
2012,07,12,10,27,19.20
2012,07,12,10,28,19.10
2012,07,12,10,29,19.10
2012,07,12,10,30,19.10
2012,07,12,10,31,19.10
2012,07,12,10,32,19.10
2012,07,12,10,33,19.20
2012,07,12,10,34,19.20
2012,07,12,10,35,19.20
2012,07,12,10,36,19.20
2012,07,12,10,37,19.20
2012,07,12,10,38,19.30
2012,07,12,10,39,19.40
2012,07,12,10,40,19.60
2012,07,12,10,41,19.60
2012,07,12,10,42,19.70
2012,07,12,10,43,19.80
2012,07,12,10,44,19.90
2012,07,12,10,45,20.00
2012,07,12,10,46,20.00
2012,07,12,10,47,20.10
2012,07,12,10,48,20.20
2012,07,12,10,49,20.20
2012,07,12,10,50,20.30
2012,07,12,10,51,20.30
2012,07,12,10,52,20.30
2012,07,12,10,53,20.30
2012,07,12,10,54,20.20
2012,07,12,10,55,20.10
2012,07,12,10,56,20.00
2012,07,12,10,57,20.00
2012,07,12,10,58,20.00
2012,07,12,10,59,20.10
2012,07,12,11,00,20.10
2012,07,12,11,01,20.10
2012,07,12,11,02,20.20
2012,07,12,11,03,20.30
2012,07,12,11,04,20.40
2012,07,12,11,05,20.40
2012,07,12,11,06,20.40
2012,07,12,11,07,20.30
2012,07,12,11,08,20.30
2012,07,12,11,09,20.30
2012,07,12,11,10,20.40
2012,07,12,11,11,20.50
2012,07,12,11,12,20.50
2012,07,12,11,13,20.60
2012,07,12,11,14,20.70
2012,07,12,11,15,20.80
2012,07,12,11,16,20.80
2012,07,12,11,17,20.80
2012,07,12,11,18,20.90
2012,07,12,11,19,20.90
2012,07,12,11,20,20.90
2012,07,12,11,21,20.90
2012,07,12,11,22,20.90
2012,07,12,11,23,20.90
2012,07,12,11,24,20.90
2012,07,12,11,25,21.00
2012,07,12,11,26,21.10
2012,07,12,11,27,21.00
2012,07,12,11,28,21.00
2012,07,12,11,29,21.00
2012,07,12,11,30,21.10
2012,07,12,11,31,21.20
2012,07,12,11,32,21.30
2012,07,12,11,33,21.30
2012,07,12,11,34,21.30
2012,07,12,11,35,21.30
2012,07,12,11,36,21.30
2012,07,12,11,37,21.20
2012,07,12,11,38,21.20
2012,07,12,11,39,21.20
2012,07,12,11,40,21.10
2012,07,12,11,41,21.20
2012,07,12,11,42,21.20
2012,07,12,11,43,21.20
2012,07,12,11,44,21.20
2012,07,12,11,45,21.20
2012,07,12,11,46,21.30
2012,07,12,11,47,21.40
2012,07,12,11,48,21.40
2012,07,12,11,49,21.40
2012,07,12,11,50,21.40
2012,07,12,11,51,21.40
2012,07,12,11,52,21.40
2012,07,12,11,53,21.40
2012,07,12,11,54,21.30
2012,07,12,11,55,21.30
2012,07,12,11,56,21.30
2012,07,12,11,57,21.30
2012,07,12,11,58,21.40
2012,07,12,11,59,21.40
2012,07,12,12,00,21.30
2012,07,12,12,01,21.20
2012,07,12,12,02,21.10
2012,07,12,12,03,21.00
2012,07,12,12,04,21.00
2012,07,12,12,05,21.00
2012,07,12,12,06,21.00
2012,07,12,12,07,21.00
2012,07,12,12,08,21.10
2012,07,12,12,09,21.20
2012,07,12,12,10,21.20
2012,07,12,12,11,21.10
2012,07,12,12,12,21.20
2012,07,12,12,13,21.30
2012,07,12,12,14,21.50
2012,07,12,12,15,21.60
2012,07,12,12,16,21.70
2012,07,12,12,17,21.70
2012,07,12,12,18,21.70
2012,07,12,12,19,21.70
2012,07,12,12,20,21.60
2012,07,12,12,21,21.60
2012,07,12,12,22,21.70
2012,07,12,12,23,21.70
2012,07,12,12,24,21.70
2012,07,12,12,25,21.70
2012,07,12,12,26,21.70
2012,07,12,12,27,21.60
2012,07,12,12,28,21.60
2012,07,12,12,29,21.60
2012,07,12,12,30,21.60
2012,07,12,12,31,21.70
2012,07,12,12,32,21.80
2012,07,12,12,33,21.90
2012,07,12,12,34,22.00
2012,07,12,12,35,22.10
2012,07,12,12,36,22.10
2012,07,12,12,37,22.10
2012,07,12,12,38,22.10
2012,07,12,12,39,22.10
2012,07,12,12,40,22.20
2012,07,12,12,41,22.30
2012,07,12,12,42,22.30
2012,07,12,12,43,22.30
2012,07,12,12,44,22.20
2012,07,12,12,45,22.10
2012,07,12,12,46,22.10
2012,07,12,12,47,22.00
2012,07,12,12,48,22.00
2012,07,12,12,49,22.00
2012,07,12,12,50,21.90
2012,07,12,12,51,21.90
2012,07,12,12,52,21.90
2012,07,12,12,53,21.90
2012,07,12,12,54,21.90
2012,07,12,12,55,22.00
2012,07,12,12,56,22.20
2012,07,12,12,57,22.30
2012,07,12,12,58,22.40
2012,07,12,12,59,22.50
2012,07,12,13,00,22.60
2012,07,12,13,01,22.80
2012,07,12,13,02,22.80
2012,07,12,13,03,22.80
2012,07,12,13,04,22.80
2012,07,12,13,05,22.70
2012,07,12,13,06,22.70
2012,07,12,13,07,22.70
2012,07,12,13,08,22.70
2012,07,12,13,09,22.70
2012,07,12,13,10,22.70
2012,07,12,13,11,22.60
2012,07,12,13,12,22.60
2012,07,12,13,13,22.60
2012,07,12,13,14,22.60
2012,07,12,13,15,22.70
2012,07,12,13,16,22.80
2012,07,12,13,17,22.90
2012,07,12,13,18,23.00
2012,07,12,13,19,23.00
2012,07,12,13,20,23.10
2012,07,12,13,21,23.10
2012,07,12,13,22,23.10
2012,07,12,13,23,23.10
2012,07,12,13,24,23.10
2012,07,12,13,25,23.10
2012,07,12,13,26,23.20
2012,07,12,13,27,23.10
2012,07,12,13,28,23.00
2012,07,12,13,29,22.80
2012,07,12,13,30,22.70
2012,07,12,13,31,22.60
2012,07,12,13,32,22.50
2012,07,12,13,33,22.50
2012,07,12,13,34,22.60
2012,07,12,13,35,22.60
2012,07,12,13,36,22.70
2012,07,12,13,37,22.80
2012,07,12,13,38,22.90
2012,07,12,13,39,22.90
2012,07,12,13,40,23.00
2012,07,12,13,41,23.00
2012,07,12,13,42,23.10
2012,07,12,13,43,23.10
2012,07,12,13,44,23.00
2012,07,12,13,45,23.00
2012,07,12,13,46,23.00
2012,07,12,13,47,23.00
2012,07,12,13,48,23.00
2012,07,12,13,49,22.90
2012,07,12,13,50,22.90
2012,07,12,13,51,23.00
2012,07,12,13,52,23.00
2012,07,12,13,53,22.90
2012,07,12,13,54,23.00
2012,07,12,13,55,23.00
2012,07,12,13,56,23.10
2012,07,12,13,57,23.10
2012,07,12,13,58,23.20
2012,07,12,13,59,23.20
2012,07,12,14,00,23.20
2012,07,12,14,01,23.30
2012,07,12,14,02,23.30
2012,07,12,14,03,23.30
2012,07,12,14,04,23.40
2012,07,12,14,05,23.40
2012,07,12,14,06,23.40
2012,07,12,14,07,23.40
2012,07,12,14,08,23.40
2012,07,12,14,09,23.50
2012,07,12,14,10,23.60
2012,07,12,14,11,23.60
2012,07,12,14,12,23.70
2012,07,12,14,13,23.70
2012,07,12,14,14,23.70
2012,07,12,14,15,23.70
2012,07,12,14,16,23.80
2012,07,12,14,17,23.80
2012,07,12,14,18,23.80
2012,07,12,14,19,23.90
2012,07,12,14,20,23.90
2012,07,12,14,21,23.90
2012,07,12,14,22,24.10
2012,07,12,14,23,24.10
2012,07,12,14,24,24.00
2012,07,12,14,25,24.00
2012,07,12,14,26,23.90
2012,07,12,14,27,23.90
2012,07,12,14,28,23.80
2012,07,12,14,29,23.80
2012,07,12,14,30,23.60
2012,07,12,14,31,23.50
2012,07,12,14,32,23.40
2012,07,12,14,33,23.30
2012,07,12,14,34,23.20
2012,07,12,14,35,23.20
2012,07,12,14,36,23.20
2012,07,12,14,37,23.20
2012,07,12,14,38,23.10
2012,07,12,14,39,23.00
2012,07,12,14,40,22.90
2012,07,12,14,41,22.90
2012,07,12,14,42,22.90
2012,07,12,14,43,22.80
2012,07,12,14,44,22.70
2012,07,12,14,45,22.60
2012,07,12,14,46,22.50
2012,07,12,14,47,22.40
2012,07,12,14,48,22.40
2012,07,12,14,49,22.40
2012,07,12,14,50,22.40
2012,07,12,14,51,22.30
2012,07,12,14,52,22.30
2012,07,12,14,53,22.30
2012,07,12,14,54,22.30
2012,07,12,14,55,22.30
2012,07,12,14,56,22.20
2012,07,12,14,57,22.20
2012,07,12,14,58,22.20
2012,07,12,14,59,22.20
2012,07,12,15,00,22.30
2012,07,12,15,01,22.40
2012,07,12,15,02,22.40
2012,07,12,15,03,22.40
2012,07,12,15,04,22.40
2012,07,12,15,05,22.40
2012,07,12,15,06,22.50
2012,07,12,15,07,22.60
2012,07,12,15,08,22.70
2012,07,12,15,09,22.60
2012,07,12,15,10,22.40
2012,07,12,15,11,22.40
2012,07,12,15,12,22.30
2012,07,12,15,13,22.40
2012,07,12,15,14,22.40
2012,07,12,15,15,22.50
2012,07,12,15,16,22.60
2012,07,12,15,17,22.70
2012,07,12,15,18,22.80
2012,07,12,15,19,22.80
2012,07,12,15,20,22.80
2012,07,12,15,21,22.70
2012,07,12,15,22,22.70
2012,07,12,15,23,22.60
2012,07,12,15,24,22.50
2012,07,12,15,25,22.30
2012,07,12,15,26,22.30
2012,07,12,15,27,22.20
2012,07,12,15,28,22.20
2012,07,12,15,29,22.20
2012,07,12,15,30,22.30
2012,07,12,15,31,22.30
2012,07,12,15,32,22.30
2012,07,12,15,33,22.40
2012,07,12,15,34,22.40
2012,07,12,15,35,22.50
2012,07,12,15,36,22.50
2012,07,12,15,37,22.60
2012,07,12,15,38,22.60
2012,07,12,15,39,22.60
2012,07,12,15,40,22.70
2012,07,12,15,41,22.80
2012,07,12,15,42,23.00
2012,07,12,15,43,23.10
2012,07,12,15,44,23.10
2012,07,12,15,45,23.20
2012,07,12,15,46,23.30
2012,07,12,15,47,23.40
2012,07,12,15,48,23.40
2012,07,12,15,49,23.40
2012,07,12,15,50,23.50
2012,07,12,15,51,23.70
2012,07,12,15,52,23.90
2012,07,12,15,53,24.10
2012,07,12,15,54,24.20
2012,07,12,15,55,24.20
2012,07,12,15,56,24.20
2012,07,12,15,57,24.20
2012,07,12,15,58,24.20
2012,07,12,15,59,24.20
2012,07,12,16,00,24.30
2012,07,12,16,01,24.30
2012,07,12,16,02,24.30
2012,07,12,16,03,24.20
2012,07,12,16,04,24.20
2012,07,12,16,05,24.20
2012,07,12,16,06,24.20
2012,07,12,16,07,24.10
2012,07,12,16,08,24.10
2012,07,12,16,09,23.90
2012,07,12,16,10,23.80
2012,07,12,16,11,23.60
2012,07,12,16,12,23.50
2012,07,12,16,13,23.40
2012,07,12,16,14,23.40
2012,07,12,16,15,23.30
2012,07,12,16,16,23.30
2012,07,12,16,17,23.40
2012,07,12,16,18,23.50
2012,07,12,16,19,23.60
2012,07,12,16,20,23.70
2012,07,12,16,21,23.70
2012,07,12,16,22,23.80
2012,07,12,16,23,23.90
2012,07,12,16,24,23.90
2012,07,12,16,25,23.90
2012,07,12,16,26,23.90
2012,07,12,16,27,23.80
2012,07,12,16,28,23.80
2012,07,12,16,29,23.80
2012,07,12,16,30,23.80
2012,07,12,16,31,23.80
2012,07,12,16,32,23.80
2012,07,12,16,33,23.80
2012,07,12,16,34,23.90
2012,07,12,16,35,23.90
2012,07,12,16,36,23.90
2012,07,12,16,37,24.00
2012,07,12,16,38,24.00
2012,07,12,16,39,24.10
2012,07,12,16,40,24.10
2012,07,12,16,41,24.10
2012,07,12,16,42,24.20
2012,07,12,16,43,24.20
2012,07,12,16,44,24.30
2012,07,12,16,45,24.40
2012,07,12,16,46,24.50
2012,07,12,16,47,24.60
2012,07,12,16,48,24.50
2012,07,12,16,49,24.50
2012,07,12,16,50,24.40
2012,07,12,16,51,24.30
2012,07,12,16,52,24.30
2012,07,12,16,53,24.30
2012,07,12,16,54,24.30
2012,07,12,16,55,24.30
2012,07,12,16,56,24.30
2012,07,12,16,57,24.30
2012,07,12,16,58,24.30
2012,07,12,16,59,24.20
2012,07,12,17,00,24.30
2012,07,12,17,01,24.30
2012,07,12,17,02,24.30
2012,07,12,17,03,24.30
2012,07,12,17,04,24.20
2012,07,12,17,05,24.10
2012,07,12,17,06,24.00
2012,07,12,17,07,23.90
2012,07,12,17,08,23.90
2012,07,12,17,09,23.90
2012,07,12,17,10,24.00
2012,07,12,17,11,24.10
2012,07,12,17,12,24.10
2012,07,12,17,13,24.20
2012,07,12,17,14,24.20
2012,07,12,17,15,24.20
2012,07,12,17,16,24.10
2012,07,12,17,17,23.90
2012,07,12,17,18,23.90
2012,07,12,17,19,23.80